GFSMA_850_thetae_171.txt.gz
Theta_e
308 309 309 313 318 323 330 333 335 335 336 336 335 335 335 334 333 332 331 326 327 327 327 326 323 321 320 321 322 319 318 318 318 318 318 319 319 321 323 326 326 325 325
307 308 308 308 309 317 321 322 325 328 332 335 335 335 335 334 334 334 332 330 327 324 325 326 325 321 321 322 326 326 325 322 321 319 318 318 318 319 321 324 329 329 330
308 308 309 309 308 308 308 311 314 316 318 325 332 334 334 334 334 333 333 333 332 331 328 324 324 323 320 320 324 326 326 327 327 326 325 323 322 321 321 321 326 328 328
310 310 310 310 310 310 311 309 308 308 311 312 314 323 331 332 332 334 334 333 333 333 332 331 328 324 320 318 319 320 321 322 322 320 320 324 325 324 323 324 324 328 328
313 312 311 311 311 311 311 311 311 311 311 310 311 311 310 315 328 329 331 333 333 333 334 331 331 332 331 326 318 317 319 320 321 321 319 320 319 321 323 323 322 324 325
311 312 312 312 312 311 311 311 311 311 311 311 311 310 309 309 312 321 327 328 330 332 332 333 332 330 331 331 330 319 320 320 321 318 320 320 320 319 320 320 322 321 323
306 307 307 310 311 310 310 311 310 311 312 312 312 312 312 312 311 312 312 322 326 329 329 330 332 332 332 332 331 329 323 327 326 323 320 323 322 323 322 321 320 320 320
307 307 310 310 310 310 310 310 311 310 311 312 312 313 313 312 310 309 310 311 319 324 326 328 330 331 331 331 330 329 329 330 330 326 324 327 325 324 323 323 323 322 321
308 309 310 310 309 310 310 311 311 311 310 311 312 313 314 315 317 319 321 321 322 323 325 327 328 330 330 331 331 330 329 329 330 329 328 328 327 327 327 325 326 325 323
309 309 309 310 310 309 309 308 309 311 312 311 311 312 312 313 314 314 311 315 322 323 326 328 329 328 326 325 327 329 329 329 329 328 328 329 328 329 328 328 329 328 327
309 310 311 310 311 311 311 310 309 308 309 311 311 311 312 313 313 314 314 313 314 315 315 315 320 323 323 321 325 326 328 328 329 328 328 328 328 329 329 330 330 330 331
309 310 310 311 311 311 311 310 309 309 308 308 309 309 309 311 312 312 314 315 316 318 320 322 322 323 322 324 324 324 324 325 325 325 325 326 326 325 325 327 327 326 326
309 309 310 311 311 311 311 309 309 309 309 309 309 309 309 310 311 311 313 314 315 316 317 318 320 320 320 321 322 323 321 322 320 322 322 320 318 319 318 318 320 321 322
311 311 311 311 312 311 311 308 309 308 309 309 309 310 311 312 312 311 312 313 314 313 313 313 313 315 317 320 321 322 323 322 323 322 321 318 318 315 314 314 314 316 318
311 311 312 312 311 311 310 308 309 309 309 310 310 310 311 311 312 312 312 312 314 314 315 314 315 315 317 318 318 318 318 319 320 320 319 317 315 315 315 315 314 315 315
311 310 311 311 312 311 311 309 308 309 309 309 310 311 311 311 311 311 312 313 313 314 316 316 316 314 313 314 315 315 316 317 317 316 316 315 313 311 308 308 310 310 309
310 309 309 309 310 311 312 310 307 309 309 309 310 312 312 312 312 313 314 314 314 315 315 314 314 315 315 316 316 316 316 315 315 315 311 311 312 311 310 310 310 311 311
311 309 309 309 309 310 309 310 310 307 308 308 309 310 311 313 314 314 313 314 314 313 313 313 315 314 313 311 310 309 309 312 313 314 313 311 309 311 312 312 311 310 310
309 309 308 307 308 310 309 308 310 310 309 307 307 308 308 310 311 311 312 313 313 313 313 312 311 309 309 310 311 312 313 313 312 310 309 310 310 310 310 310 309 310 311
305 305 305 305 305 307 309 310 310 310 310 310 310 310 310 309 308 307 307 308 308 308 308 308 309 309 309 309 309 308 307 308 308 309 309 308 309 309 309 309 309 309 309
302 302 302 302 303 303 305 308 310 310 310 309 309 309 309 308 308 309 309 309 308 308 308 308 307 307 307 306 306 306 307 307 307 307 307 306 306 306 306 306 306 306 306
300 300 300 301 300 300 300 302 305 308 307 308 307 306 306 306 307 306 306 306 306 306 306 306 306 305 305 305 306 306 306 306 305 305 305 305 304 304 302 301 302 303 304
299 299 299 299 299 299 299 299 299 299 303 305 305 306 305 305 306 306 306 305 305 305 306 305 305 305 305 303 303 304 303 303 302 300 297 293 295 296 297 296 296 298 299
298 298 298 298 298 298 298 298 298 297 298 300 300 303 304 305 304 304 304 303 301 300 302 303 302 302 302 301 300 300 295 292 291 291 292 291 292 292 291 291 291 292 291
298 298 298 298 298 297 297 297 297 297 296 296 296 297 300 298 296 295 295 294 294 294 295 296 296 294 297 294 291 291 291 290 290 289 290 290 290 290 290 290 290 289 288
299 299 299 298 298 298 297 297 297 296 296 296 295 295 296 295 295 294 293 293 293 293 292 292 292 291 291 290 290 290 289 289 289 288 290 288 288 288 288 288 288 287 287

GFSMA_850_thetae_174.txt.gz
Theta_e
307 307 307 308 309 310 315 319 325 329 331 332 332 334 335 335 335 333 332 332 330 327 327 327 327 327 324 321 320 321 320 318 318 318 318 318 318 319 320 322 325 326 327
307 307 307 307 307 308 308 310 314 318 319 319 324 329 330 334 334 334 334 334 331 330 329 326 325 325 325 323 320 322 326 323 320 319 318 317 317 317 318 319 322 327 329
310 309 309 308 308 308 308 308 308 308 309 310 312 314 318 327 330 333 333 333 334 330 330 330 329 327 324 323 320 323 326 326 325 326 326 326 324 321 318 319 320 322 327
313 313 312 311 311 310 310 310 311 310 310 309 308 309 310 312 313 319 328 332 331 333 330 329 331 330 330 328 322 318 319 326 327 327 326 326 326 326 325 323 322 323 324
309 310 311 312 312 312 312 311 311 311 311 311 310 310 309 309 308 309 309 319 329 330 332 333 330 329 331 331 331 330 321 319 323 324 324 322 322 323 323 322 324 324 322
303 305 306 308 308 308 309 310 310 311 311 310 311 311 311 310 310 310 310 309 313 324 327 330 331 331 330 328 330 331 330 324 322 322 323 324 321 320 322 322 321 321 321
310 308 306 306 310 310 311 310 310 310 311 310 311 311 312 311 311 311 310 309 309 309 313 324 326 329 331 330 327 329 331 330 326 322 324 328 325 321 320 324 323 322 322
309 309 307 309 309 308 309 309 310 310 311 311 310 311 311 311 311 312 315 318 317 314 311 319 322 325 327 329 330 327 329 330 328 325 325 329 327 322 325 327 325 323 322
309 309 309 309 308 309 310 309 309 308 308 310 311 312 312 313 312 312 313 313 313 320 321 322 321 321 326 327 328 331 330 329 327 327 327 329 329 327 328 327 327 327 326
309 309 309 310 310 310 310 309 309 309 309 308 308 309 310 311 312 312 312 312 311 312 314 316 318 324 327 327 326 326 327 328 328 329 329 329 329 328 329 329 329 328 327
309 309 310 310 310 310 310 310 309 308 308 308 308 308 308 308 308 310 312 312 312 313 316 316 319 317 320 321 321 321 324 325 327 328 328 328 328 329 329 329 331 332 331
309 309 310 310 310 311 310 311 307 308 308 309 309 309 309 309 309 309 311 312 311 313 314 314 318 321 320 321 322 322 322 323 324 324 324 325 325 325 323 322 321 323 322
311 310 311 311 311 311 311 310 307 308 308 309 310 309 309 311 311 312 311 311 311 312 312 311 312 315 318 319 321 321 322 322 321 322 321 322 322 320 318 317 314 314 315
311 310 310 311 312 310 310 310 306 309 309 309 310 310 310 311 311 312 312 311 311 313 312 312 312 313 316 317 318 320 321 322 322 322 322 322 321 318 318 316 314 313 314
310 311 311 311 309 311 310 311 308 308 309 309 309 310 310 310 310 311 312 312 313 313 312 312 314 316 317 317 317 317 317 317 319 321 320 319 317 316 315 312 311 310 308
311 311 311 310 310 310 310 310 310 307 308 309 309 310 312 311 310 310 311 313 313 314 314 313 315 315 316 315 315 315 315 316 316 316 316 316 315 314 310 308 308 308 308
311 311 311 310 310 309 309 308 310 310 307 307 308 310 310 312 312 312 312 313 314 314 314 314 313 315 315 315 316 315 314 314 313 313 312 311 310 310 310 309 308 309 310
309 308 307 305 306 307 308 309 308 310 309 307 308 308 308 309 311 312 313 313 313 313 313 312 312 313 313 311 310 309 309 310 310 311 311 312 312 310 309 308 309 309 309
304 304 303 303 303 303 306 307 309 309 310 310 309 308 307 307 308 309 310 311 312 312 312 312 312 311 310 309 310 310 310 309 309 309 309 308 308 309 309 309 309 309 309
301 301 302 302 301 302 302 304 308 310 310 308 307 307 308 308 309 308 308 308 308 308 307 307 307 308 308 308 307 307 307 306 306 307 307 307 307 307 307 306 306 306 306
300 300 300 300 300 300 300 300 301 305 308 307 308 307 307 306 306 305 307 308 307 307 306 307 306 306 307 307 306 306 305 305 306 306 306 306 305 305 305 303 303 302 304
299 299 299 299 299 299 299 299 299 299 299 301 303 306 305 305 306 305 305 305 305 305 305 305 305 305 306 305 305 305 305 305 304 303 301 298 296 294 295 296 295 294 294
298 298 298 298 298 298 298 298 298 298 298 298 300 299 301 303 304 305 305 304 304 303 302 305 304 304 303 302 301 301 302 301 298 294 292 292 292 292 292 293 292 292 292
299 298 298 298 298 298 297 297 297 297 297 297 297 298 298 299 303 299 298 300 299 296 297 298 299 300 300 299 299 296 293 291 291 291 292 292 292 291 290 290 290 290 291
299 299 299 298 298 298 297 297 297 297 296 296 296 295 296 297 297 295 294 294 294 294 293 293 294 293 293 293 292 291 291 291 290 291 291 291 291 291 290 290 289 289 288
300 300 300 299 299 299 298 297 297 297 296 296 296 295 295 295 295 295 293 292 292 292 292 292 292 292 291 291 291 290 290 290 289 289 291 290 289 289 289 289 288 288 288

GFSMA_850_thetae_177.txt.gz
Theta_e
306 306 306 306 307 307 308 308 309 312 316 321 325 327 329 330 332 333 334 333 331 329 325 326 326 327 326 326 324 320 319 319 319 318 318 318 318 318 319 319 321 324 326
310 309 309 308 308 307 307 307 307 307 308 310 313 315 316 318 326 328 331 333 334 333 329 327 327 327 326 325 325 322 320 319 321 320 319 318 318 318 318 318 319 320 324
312 312 312 312 311 310 310 309 309 309 309 309 309 308 308 309 312 315 321 325 330 332 333 331 327 327 328 327 326 324 322 320 324 326 325 325 324 324 322 321 320 322 321
307 308 310 311 312 312 312 312 312 312 312 311 311 311 310 309 308 308 310 311 318 324 330 332 332 329 329 330 329 327 325 321 321 326 327 327 327 327 326 326 325 324 323
302 302 303 304 306 308 308 308 308 308 308 309 310 310 310 311 310 310 309 308 308 309 314 325 329 330 327 327 329 328 329 328 325 319 324 325 325 323 322 324 324 324 324
311 311 310 306 306 306 308 310 310 310 310 310 310 311 311 311 311 311 311 310 310 309 309 309 316 320 326 328 328 328 328 329 328 327 323 322 322 324 324 320 321 322 321
310 309 309 308 308 309 309 309 309 308 308 309 311 310 310 311 311 311 311 311 313 314 309 308 310 313 321 325 326 329 328 327 329 329 329 323 322 324 328 327 321 321 324
309 308 308 309 309 308 308 308 308 307 307 308 308 309 311 311 312 311 313 314 315 313 316 319 319 313 319 322 325 327 329 328 329 328 329 328 323 323 327 328 322 322 327
309 309 309 309 309 309 309 308 309 309 308 308 307 308 310 312 309 311 310 310 311 312 312 313 316 321 322 321 323 325 327 328 328 328 329 328 327 327 327 329 327 325 328
308 309 309 309 309 309 309 309 309 308 308 308 308 308 308 308 308 309 309 309 311 312 312 314 314 316 321 323 324 326 327 327 328 328 329 328 327 328 328 329 328 329 328
309 309 309 309 310 310 310 310 309 307 308 308 308 308 308 309 309 309 309 309 311 311 312 313 314 317 319 321 322 321 322 324 325 326 326 328 329 329 330 330 330 329 329
309 308 308 310 311 311 310 310 309 307 308 308 309 309 309 309 311 311 312 312 312 311 311 312 311 311 315 319 321 321 321 323 324 325 325 325 326 327 327 325 322 319 317
311 311 310 311 311 310 310 310 309 307 308 308 309 310 310 310 311 311 312 312 311 311 311 312 313 311 313 317 318 320 321 322 324 323 323 322 322 323 321 319 316 315 315
310 310 310 310 310 310 309 309 310 306 308 308 309 309 309 310 310 311 311 312 312 311 312 312 312 315 316 317 318 318 320 321 322 322 322 322 322 321 320 317 316 315 313
310 310 310 310 310 309 308 308 309 309 307 308 308 308 310 311 310 310 311 311 312 313 313 313 314 316 316 315 315 316 316 316 317 319 321 321 318 317 316 315 315 312 307
308 310 310 310 309 309 309 309 308 310 309 307 308 308 309 310 311 311 311 312 313 313 314 314 314 314 315 316 315 315 315 315 315 315 315 315 315 315 314 313 309 308 308
307 309 308 307 305 304 306 308 310 309 310 308 307 307 308 309 309 312 312 312 313 313 313 313 311 312 313 313 314 313 313 312 312 312 311 311 310 309 308 309 310 308 308
304 305 304 303 303 303 302 305 306 308 310 310 308 307 307 307 308 309 310 312 313 313 313 313 312 311 312 312 310 310 309 308 308 308 308 309 310 310 309 308 307 308 309
301 302 302 302 302 301 301 302 303 306 309 309 308 308 308 308 308 307 307 307 309 310 310 310 311 310 310 308 308 308 308 308 308 308 307 307 308 308 308 308 308 308 308
300 300 300 301 301 301 300 300 300 301 305 307 307 308 307 307 307 307 307 308 308 308 307 307 307 307 306 307 307 306 306 306 306 306 306 306 306 306 306 306 306 305 305
299 299 299 299 299 299 300 299 299 299 299 299 301 304 305 305 305 304 304 305 306 306 306 306 306 306 306 305 305 305 305 305 305 305 305 304 304 303 302 300 302 299 296
299 298 298 298 298 299 299 298 298 298 298 298 299 300 300 301 302 303 304 304 304 304 305 304 305 305 304 304 305 304 303 304 304 303 300 297 293 293 293 293 294 293 293
298 298 298 298 298 298 298 298 297 297 297 297 297 297 299 299 300 300 301 301 303 302 301 299 301 304 303 302 302 299 298 297 299 294 292 292 292 292 292 291 290 290 290
299 299 299 298 298 298 297 297 297 297 297 297 297 296 296 296 296 299 299 296 296 296 295 296 296 297 298 297 297 297 295 291 291 291 291 291 291 291 290 290 290 290 290
300 300 299 299 299 299 298 298 297 297 297 297 296 296 296 295 295 296 296 294 294 294 294 293 293 293 293 293 292 291 291 291 290 290 290 290 291 290 290 290 290 289 288
302 301 301 301 300 300 299 298 298 298 298 298 297 296 296 295 295 295 295 294 293 293 292 292 292 292 292 291 291 290 290 290 289 289 290 290 290 290 289 289 288 288 288

GFSMA_850_thetae_180.txt.gz
Theta_e
309 309 309 309 308 308 307 307 307 307 307 308 309 312 315 318 321 327 329 331 333 334 331 329 324 323 327 327 327 326 324 321 319 318 318 318 318 318 318 319 319 320 322
311 311 311 312 312 311 310 310 309 309 308 308 308 308 307 308 310 313 315 323 326 329 333 333 330 327 327 327 327 327 325 325 321 320 321 319 318 318 318 318 318 319 320
307 307 307 308 309 311 311 312 312 312 312 311 311 311 311 310 309 308 307 309 312 322 324 326 331 332 328 327 328 328 327 325 325 322 322 324 323 322 321 322 321 320 321
302 302 302 302 303 304 305 307 308 308 308 307 307 308 308 309 311 311 311 309 308 308 310 314 317 324 331 331 328 329 329 330 326 324 323 326 326 326 327 327 326 325 325
306 309 310 311 310 306 305 306 307 309 311 311 311 311 311 311 311 311 310 310 310 310 309 308 308 309 317 328 331 330 330 331 330 328 324 323 325 327 326 325 323 324 324
311 310 310 309 309 308 308 309 309 309 308 307 307 307 308 309 310 310 311 311 311 311 313 311 309 307 308 311 322 327 329 330 332 330 330 328 323 326 323 324 325 321 320
309 309 309 309 308 309 308 308 307 306 307 307 307 307 308 309 310 310 311 313 314 314 314 315 317 316 310 308 312 323 327 326 326 330 328 329 328 324 323 323 325 326 324
309 309 309 309 309 308 309 308 307 306 306 308 307 307 307 310 311 308 309 309 310 311 312 312 313 314 318 316 310 319 324 326 323 323 328 328 329 329 326 324 324 328 328
309 309 309 309 309 309 309 309 308 307 307 308 308 308 308 308 308 308 309 309 309 311 312 313 316 316 316 318 319 319 323 324 326 325 324 326 328 329 328 326 323 325 328
308 308 309 309 309 309 310 310 309 307 307 308 308 308 308 308 308 308 310 312 311 311 311 312 314 313 313 317 320 319 322 323 323 326 327 327 324 327 328 328 328 328 330
308 308 308 309 309 310 310 309 309 307 307 308 309 309 309 309 310 310 311 311 312 311 311 311 311 310 310 315 319 320 322 324 325 326 327 325 323 323 328 329 330 330 328
310 309 309 309 310 310 310 309 309 307 307 308 309 309 309 309 309 310 311 311 311 311 311 311 312 312 311 313 316 319 320 322 324 324 326 326 327 328 328 327 325 324 318
310 310 310 310 310 310 310 309 309 308 306 308 308 309 309 310 310 310 310 311 311 312 311 311 311 314 312 313 313 317 318 320 321 321 323 324 324 323 323 322 320 318 315
310 310 309 310 310 309 309 309 308 310 307 307 308 308 308 311 310 310 310 311 311 311 311 313 313 314 315 315 315 315 317 318 319 321 322 322 322 322 321 320 319 317 315
309 309 310 309 309 309 309 308 308 308 309 307 307 308 308 309 311 311 311 311 311 311 311 313 314 314 314 315 314 314 315 315 316 316 318 320 319 319 318 317 315 314 313
303 305 308 309 307 306 305 306 306 309 309 309 307 306 307 308 309 310 312 312 312 312 314 313 314 313 313 314 313 314 314 314 314 314 314 314 314 314 314 313 311 309 306
302 304 306 305 304 303 303 303 305 305 307 309 309 307 307 307 307 308 309 311 312 312 312 313 312 312 311 311 311 312 311 310 310 309 309 309 308 308 308 308 309 308 308
302 301 303 303 302 302 302 302 302 303 305 308 309 309 308 307 307 306 307 308 308 310 311 312 312 312 311 312 311 310 308 308 307 307 308 308 308 308 308 308 308 308 308
303 301 301 301 301 301 301 301 301 301 301 303 307 308 307 308 308 307 307 308 307 307 307 308 308 308 308 307 307 307 307 307 307 307 307 306 306 306 306 306 306 306 306
301 300 300 300 300 300 300 300 300 299 300 299 300 302 302 304 305 305 305 305 306 306 307 307 307 307 306 306 306 306 305 305 305 305 305 305 305 305 305 305 304 304 303
299 299 299 299 299 299 299 299 299 299 299 298 298 299 299 300 299 301 303 304 304 304 305 304 305 305 305 305 305 305 304 304 303 304 305 304 303 303 300 299 297 294 294
299 298 298 298 298 298 298 298 298 298 298 298 298 297 298 299 299 300 300 301 302 303 303 304 303 302 304 304 303 303 303 302 301 302 301 299 294 292 293 292 292 293 293
300 299 298 298 298 298 298 297 297 297 297 297 297 297 297 297 297 297 297 299 300 298 300 299 297 297 300 302 300 299 299 298 296 294 292 292 292 292 292 292 291 291 291
301 300 300 299 299 299 298 298 297 297 297 297 297 297 296 296 296 296 296 297 297 295 295 295 295 295 295 296 296 295 294 294 292 292 291 291 292 292 292 291 291 292 291
301 301 301 301 300 300 299 299 298 298 298 298 297 297 297 296 296 295 295 295 296 295 294 293 293 293 293 293 292 292 291 291 290 290 291 290 291 291 291 291 291 290 289
301 301 301 301 301 301 301 300 299 299 298 299 298 298 297 297 296 295 295 295 295 295 293 293 293 293 292 292 292 291 291 290 289 289 290 290 290 289 289 290 289 289 288

GFSMA_850_thetae_183.txt.gz
Theta_e
310 310 311 311 311 311 311 311 310 309 309 308 307 307 307 307 308 311 315 319 326 329 331 334 333 330 329 321 324 325 326 326 326 326 323 319 319 318 318 318 319 319 320
309 308 307 307 307 308 309 310 311 312 312 312 312 311 311 310 309 308 307 307 310 314 321 325 330 333 332 330 325 326 326 326 326 325 325 325 323 321 318 318 318 318 318
304 303 302 302 302 302 303 303 305 306 307 307 308 308 308 309 310 311 312 311 309 307 308 310 315 320 327 332 332 328 329 329 327 325 324 324 323 324 320 319 318 319 318
303 306 308 309 310 311 310 308 306 306 306 308 309 310 310 310 311 311 310 309 310 311 311 309 307 308 313 317 324 330 331 329 330 329 326 324 323 324 325 324 324 325 324
310 310 310 310 310 310 309 308 308 309 309 308 307 307 307 307 308 310 311 310 311 311 311 311 311 310 308 308 310 316 327 331 330 330 331 327 325 324 326 326 327 326 326
308 309 309 309 309 309 308 309 308 307 306 306 306 307 307 308 309 310 310 311 311 312 312 312 314 313 313 311 308 308 310 321 329 330 331 331 329 325 327 327 327 325 322
309 309 309 308 309 309 309 308 307 306 306 306 307 307 307 309 310 309 308 309 309 312 313 314 313 313 314 315 315 310 307 310 316 328 330 330 329 326 327 322 323 323 324
308 309 309 309 309 308 308 308 308 307 306 308 307 307 308 310 310 309 310 310 309 309 310 312 312 314 313 312 314 316 311 308 316 326 326 326 324 326 329 326 325 323 324
307 308 308 308 308 309 309 309 309 308 307 307 308 308 309 309 309 309 310 310 311 310 310 311 312 314 313 312 314 316 319 315 320 323 324 328 324 323 323 330 329 327 324
307 308 308 308 309 309 310 310 309 309 307 307 308 309 308 308 309 310 309 310 311 311 311 311 311 311 310 310 313 316 319 318 319 321 322 326 327 325 324 323 329 328 328
308 308 308 308 308 309 310 310 309 309 306 308 308 309 309 309 309 309 309 310 310 311 311 311 311 311 312 311 313 317 317 318 321 323 323 325 327 326 325 324 325 329 329
310 310 310 310 309 310 310 310 308 309 307 307 308 308 309 309 310 310 309 311 311 311 311 311 311 312 313 313 312 313 316 319 321 324 327 327 327 327 323 324 327 325 322
310 310 310 310 310 310 310 309 309 309 309 307 308 308 308 310 310 311 312 311 311 310 311 312 313 314 313 314 315 313 314 316 320 321 324 326 325 325 325 323 321 320 320
310 310 310 310 310 309 309 309 308 308 309 308 307 308 308 309 310 311 310 310 310 310 311 312 314 314 314 314 314 314 315 315 316 315 321 321 321 322 321 320 318 317 315
309 307 305 307 309 308 307 307 307 306 307 309 308 307 307 308 309 310 311 310 310 310 311 312 313 313 313 314 313 314 314 314 314 315 316 317 319 319 318 317 316 314 313
307 303 304 307 307 306 304 304 304 304 305 308 309 308 307 307 307 308 309 309 309 311 311 311 312 313 312 312 311 310 311 312 312 312 313 313 313 313 313 313 312 310 309
307 304 302 304 304 303 303 302 302 303 303 305 308 309 308 307 307 307 307 308 309 310 310 310 311 312 312 311 311 311 311 310 309 308 308 307 307 307 307 307 307 307 308
303 305 302 301 302 302 302 301 301 301 301 301 303 308 308 308 308 308 307 306 306 307 307 308 309 310 310 310 309 308 308 307 307 307 307 307 307 307 307 307 307 307 307
299 301 303 301 300 301 301 301 300 300 300 300 299 301 305 307 306 306 306 306 306 307 306 306 306 306 306 306 306 306 306 305 304 305 305 306 306 306 305 306 306 306 306
302 299 300 300 300 300 300 300 299 299 299 299 299 299 299 300 302 301 302 303 304 304 305 304 305 305 305 306 306 306 305 304 304 303 303 304 304 304 303 304 304 304 304
305 301 299 299 299 299 299 299 299 299 298 298 298 298 298 299 299 299 300 300 301 302 303 303 303 303 304 304 305 305 304 304 304 302 303 304 304 302 301 299 295 294 293
305 304 300 299 298 298 298 298 298 298 298 298 298 297 297 297 297 298 299 299 299 299 300 301 302 302 301 300 304 303 303 302 300 297 301 301 299 293 292 293 292 292 292
304 304 302 299 299 299 298 298 298 298 298 298 297 297 297 297 297 296 297 298 297 297 298 297 297 297 296 297 299 300 298 298 297 296 293 292 292 292 292 292 291 291 292
302 302 302 300 300 300 299 299 298 298 298 298 298 297 297 297 296 296 296 296 296 296 297 295 295 295 295 295 295 296 295 294 294 292 291 291 291 292 291 291 291 291 291
302 301 301 301 301 301 300 300 299 299 299 299 299 298 298 298 297 296 296 296 296 295 296 295 294 293 294 293 293 293 292 292 291 291 291 291 291 291 291 290 290 291 290
299 300 300 300 300 300 299 300 300 300 300 300 300 299 299 298 298 297 296 296 296 296 295 295 294 293 293 293 293 292 291 291 290 290 291 290 290 290 290 290 290 290 289

GFSMA_850_thetae_186.txt.gz
Theta_e
310 309 308 307 307 306 307 308 309 310 311 312 311 311 310 310 311 312 313 314 308 313 319 327 330 331 333 333 330 328 323 323 326 327 327 326 322 320 319 327 325 320 322
307 305 304 303 303 303 303 303 303 304 304 305 307 308 309 310 311 312 313 314 311 308 307 310 315 323 327 332 333 333 330 325 326 326 327 327 326 323 320 323 319 319 319
303 304 307 308 309 309 310 310 310 309 308 307 306 307 309 309 310 309 310 312 314 313 312 310 307 307 311 317 324 328 332 332 328 328 327 327 326 325 325 323 320 318 318
308 309 309 310 310 310 310 311 311 309 311 310 310 309 309 308 307 308 311 312 313 312 313 311 310 311 310 307 308 314 320 326 330 331 330 329 327 325 325 324 323 319 318
309 308 309 309 309 309 310 310 311 310 309 310 307 308 310 310 309 309 310 311 312 312 315 315 311 311 311 311 311 310 308 310 316 324 331 331 330 328 326 325 325 325 323
308 309 309 309 309 309 311 311 310 310 310 309 307 309 310 308 309 310 309 310 310 311 313 314 315 317 314 314 314 314 313 311 308 308 314 328 331 331 329 326 325 326 326
308 308 309 309 309 309 310 309 310 311 310 309 311 312 311 310 310 309 310 311 311 310 309 312 314 316 316 313 312 312 313 315 315 309 308 313 323 328 331 329 331 327 327
308 308 308 309 308 309 311 311 311 311 311 310 311 312 313 313 312 312 312 313 313 313 312 311 312 313 314 314 313 312 313 314 316 316 308 311 318 323 328 323 323 325 324
308 307 308 308 308 309 310 310 310 310 309 310 309 311 312 313 311 312 312 313 313 314 313 312 312 312 312 312 310 312 316 316 318 318 312 315 323 324 325 325 324 324 322
309 307 308 308 308 309 309 310 310 310 309 310 310 310 309 310 310 311 311 312 313 314 314 314 313 311 311 312 312 312 315 317 318 318 317 322 324 326 328 326 324 321 324
310 309 309 309 308 308 309 311 310 309 309 308 310 309 309 309 310 309 310 311 312 313 313 313 311 310 313 313 315 312 314 316 319 319 320 317 318 325 327 326 325 322 325
311 310 310 310 310 310 310 310 310 309 309 308 308 308 308 309 311 309 309 310 311 313 313 314 313 314 314 314 315 315 314 314 316 321 323 324 325 326 327 326 326 326 323
310 310 310 310 309 309 310 310 309 309 309 309 308 308 309 309 311 310 309 310 309 312 314 314 315 314 314 314 313 314 315 315 315 315 316 322 327 326 326 325 325 324 323
309 308 307 306 308 309 309 309 308 308 307 308 309 307 308 308 309 310 309 309 309 312 312 313 314 313 313 313 313 312 312 314 314 315 314 314 318 319 320 320 318 318 316
308 308 307 303 306 308 308 307 306 306 305 306 308 308 307 307 308 308 309 309 309 310 311 312 313 312 313 312 311 311 310 311 312 312 313 315 316 317 316 316 315 315 314
301 307 307 302 304 306 305 304 304 304 305 304 306 309 308 307 306 307 307 309 309 309 310 312 311 311 311 311 311 310 311 310 309 309 309 310 311 312 312 312 311 311 310
303 301 306 305 301 303 303 303 302 302 302 302 303 303 308 308 307 307 307 307 307 308 308 310 310 310 310 310 310 310 309 308 307 307 307 307 307 306 306 307 307 307 307
306 301 301 305 303 301 301 301 301 301 301 301 301 300 302 306 306 307 307 308 307 307 308 308 307 308 310 309 307 307 307 307 306 306 306 306 307 307 307 307 307 307 307
307 305 301 300 302 301 301 300 300 300 300 300 300 300 300 301 302 306 307 305 305 305 305 305 305 305 306 306 308 307 306 306 305 304 302 304 305 305 306 306 306 306 306
307 306 305 300 300 300 300 300 300 300 299 299 299 299 299 299 301 304 304 304 303 304 304 303 304 304 305 305 305 305 305 304 304 304 303 302 304 304 302 303 302 301 299
305 306 305 304 300 299 299 299 299 299 299 298 298 298 298 298 298 298 299 301 302 303 303 303 303 303 304 304 304 305 305 304 303 303 302 300 303 303 301 300 299 294 293
302 304 305 305 303 299 298 298 298 298 298 298 298 298 298 298 297 297 297 298 299 300 302 302 301 300 300 300 299 300 303 303 302 299 297 298 300 298 295 292 293 293 293
302 302 302 303 304 302 299 298 298 298 298 298 298 298 298 297 297 297 297 296 297 298 298 298 298 300 299 297 296 296 299 299 298 297 296 294 292 292 292 292 292 292 293
301 301 302 302 302 302 301 300 299 298 298 298 298 298 298 298 297 297 297 296 296 296 296 296 296 297 295 295 295 295 295 296 294 294 292 291 292 291 292 292 291 292 291
299 300 300 301 301 301 301 301 300 300 300 300 300 299 299 299 299 298 297 297 297 296 296 296 295 295 294 293 294 294 293 293 293 292 291 290 291 290 290 291 290 291 290
299 299 299 299 299 299 299 299 299 299 299 299 300 300 300 300 299 299 298 297 297 297 296 295 295 295 295 293 293 293 293 292 291 290 291 290 290 290 290 290 289 289 290

GFSMA_850_thetae_189.txt.gz
Theta_e
309 308 307 306 307 307 309 309 308 308 309 311 312 314 315 315 315 314 314 314 314 314 311 309 314 319 326 330 330 332 332 330 328 324 323 327 328 327 326 327 326 328 326
306 304 305 308 309 312 312 311 312 312 312 312 312 312 312 312 312 313 314 315 315 315 314 313 309 308 309 314 323 328 331 332 332 331 326 325 326 327 327 325 322 325 327
304 307 309 310 312 312 312 313 313 314 314 314 314 314 314 314 314 314 314 314 314 314 314 314 310 311 311 308 307 308 312 318 327 331 332 329 327 327 327 326 324 322 323
308 309 309 310 311 311 312 313 313 313 313 313 313 313 312 312 313 313 313 313 313 314 315 315 316 314 311 310 310 310 310 309 308 313 321 329 331 329 328 327 325 323 321
310 308 309 310 310 311 312 313 313 313 313 313 312 312 312 313 314 314 313 313 314 314 315 317 316 314 315 314 313 313 313 313 312 311 309 310 319 330 331 330 326 324 323
309 308 309 311 311 312 313 313 312 312 313 312 312 313 313 313 312 313 313 313 313 313 313 313 316 316 317 316 314 313 312 312 313 313 314 313 309 312 326 331 332 327 324
309 308 309 311 312 312 312 313 313 313 313 312 313 312 314 312 312 313 313 314 314 314 314 314 314 315 316 317 316 315 312 312 313 313 314 314 315 309 309 318 328 330 326
310 308 308 310 312 312 313 313 313 312 313 312 312 314 315 315 314 313 313 313 314 314 315 314 314 315 315 315 315 314 312 313 315 317 317 317 318 317 312 313 319 322 325
311 310 308 308 312 314 312 311 312 313 311 312 312 312 313 314 311 314 313 313 313 314 315 315 314 315 315 313 314 314 312 313 315 318 317 318 317 315 316 319 322 319 320
311 311 308 308 309 312 313 312 312 312 313 311 311 312 312 310 310 311 311 313 312 314 314 314 314 315 315 314 314 314 313 313 314 317 321 320 317 318 319 324 326 322 322
311 311 310 310 310 310 311 313 313 312 312 311 310 311 311 311 310 309 310 310 310 314 314 314 315 315 314 314 314 314 314 315 316 315 318 318 319 318 322 322 326 326 325
310 311 310 310 310 310 310 310 313 311 311 310 311 311 311 311 310 308 309 309 310 312 313 315 315 315 314 315 314 313 312 313 314 314 316 316 320 320 319 325 327 327 323
311 312 311 308 308 309 309 309 309 311 309 310 310 311 311 311 310 309 308 309 310 310 313 313 314 314 313 313 313 312 311 310 312 313 314 315 316 324 325 326 325 325 324
305 310 309 308 306 305 307 308 308 308 307 307 307 311 310 311 310 310 310 308 309 310 312 313 313 314 313 313 312 311 310 310 310 310 312 314 314 317 315 318 318 320 319
305 301 305 307 305 304 306 307 305 304 305 306 305 306 310 310 311 310 309 309 309 309 310 311 312 311 311 311 311 311 311 310 309 308 308 310 312 312 314 316 315 314 314
306 306 301 305 307 302 304 304 304 303 303 304 305 304 306 308 309 310 310 310 308 308 309 310 310 310 310 310 310 310 309 309 307 307 306 306 307 308 308 310 311 312 312
306 307 305 301 304 305 302 302 303 302 302 302 302 302 303 302 307 309 309 308 307 307 307 307 308 308 308 308 308 308 309 307 306 307 305 306 306 306 306 306 306 307 307
305 306 306 305 301 302 304 301 301 301 301 301 301 301 302 302 302 304 307 306 305 306 306 305 305 305 306 307 307 307 307 306 305 305 303 302 305 306 307 307 306 307 307
303 306 307 306 305 301 301 302 301 300 300 300 300 301 301 302 303 303 302 303 305 304 304 304 304 304 305 306 305 306 305 305 305 304 304 302 303 305 305 305 305 305 305
302 304 306 307 306 305 300 300 301 300 300 300 300 300 299 299 300 302 304 305 305 305 304 303 303 303 304 304 304 305 305 305 304 303 303 302 301 302 304 304 301 299 296
302 302 303 305 305 305 304 301 299 299 299 299 299 299 299 298 298 298 298 299 300 302 303 303 303 303 302 302 303 303 304 304 304 303 301 298 298 301 302 300 298 294 294
301 301 301 302 303 304 304 304 300 298 298 298 298 298 298 298 298 298 297 297 297 297 298 300 302 301 300 301 299 299 298 297 303 302 299 297 296 295 295 294 293 293 294
301 301 301 301 302 302 302 303 302 299 298 298 298 298 298 298 298 298 297 297 297 297 296 297 298 299 298 301 299 297 296 296 300 299 298 295 294 292 292 292 292 293 293
299 300 300 300 301 301 301 301 301 300 300 300 299 299 299 299 298 298 298 297 297 297 297 297 296 296 296 297 297 295 295 295 295 295 294 293 292 291 292 292 292 292 292
299 299 299 299 299 299 299 299 299 300 300 300 300 300 300 300 300 299 298 298 298 297 297 297 296 296 296 295 295 294 294 294 293 293 293 291 292 291 291 291 291 292 292
299 299 299 299 299 299 299 299 299 298 298 299 299 299 299 299 299 299 299 298 298 298 298 297 297 297 295 295 295 294 293 294 293 292 292 291 291 290 290 291 290 291 291

GFSMA_850_thetae_192.txt.gz
Theta_e
309 307 305 305 307 308 310 311 310 311 311 311 310 310 311 311 311 313 314 314 314 314 314 314 313 312 310 314 318 324 328 330 331 332 330 328 323 323 328 328 326 325 326
305 304 306 308 309 310 311 311 311 312 313 313 314 314 314 314 313 313 313 312 312 314 314 314 314 312 312 310 308 309 313 320 326 329 331 332 331 326 324 327 327 326 323
304 307 309 309 309 310 310 311 312 312 313 313 313 313 313 313 312 312 312 311 311 312 314 315 314 316 314 311 311 311 310 309 309 311 318 326 330 331 330 327 327 327 325
306 309 309 308 309 310 310 312 313 313 312 312 312 311 311 311 312 312 312 312 312 314 313 314 316 316 314 314 313 314 318 318 317 314 311 309 309 317 327 331 329 327 326
309 310 308 309 310 310 312 313 312 312 312 312 312 311 313 313 311 313 313 313 312 312 312 312 315 314 317 316 316 315 317 315 313 312 313 312 313 311 309 316 329 330 329
309 310 308 309 311 311 312 312 312 312 312 312 310 312 313 312 311 312 312 313 314 314 313 312 312 315 315 316 315 316 315 312 311 312 312 313 312 312 313 311 311 322 331
309 310 309 308 311 311 312 313 313 312 312 312 311 312 314 314 313 312 312 313 313 314 315 314 312 312 314 315 314 312 312 312 311 312 316 316 316 315 315 316 313 317 320
308 311 310 308 309 310 310 311 312 311 311 311 312 311 314 315 315 312 313 313 313 314 314 314 314 315 315 314 313 314 314 312 312 314 318 320 319 317 316 317 319 320 314
305 310 311 309 308 310 311 312 311 312 311 311 311 311 310 312 309 313 313 312 312 314 314 314 314 315 316 314 313 314 314 314 314 314 314 319 318 319 318 315 316 318 313
304 309 311 310 310 311 312 310 311 311 310 310 310 311 310 310 309 309 310 310 310 314 314 314 314 314 315 313 312 312 312 312 313 314 315 318 316 317 318 316 317 320 323
305 307 309 310 310 310 311 312 311 311 311 310 310 309 309 309 309 309 309 309 311 313 314 314 314 314 314 315 312 312 311 310 310 312 314 316 316 320 320 316 318 321 322
306 307 309 309 308 308 309 309 309 310 312 308 309 310 309 309 309 308 308 308 309 309 313 313 313 314 313 312 312 311 311 310 309 310 311 314 316 316 318 316 322 323 327
306 306 310 310 309 307 305 308 309 307 308 307 306 308 310 309 308 308 308 308 308 308 311 313 313 312 313 312 311 311 310 310 309 308 308 311 315 316 318 320 323 323 323
306 305 304 304 307 308 305 306 307 307 305 304 305 305 307 309 310 309 308 308 308 308 309 311 312 311 311 310 310 310 310 309 309 307 306 307 310 315 317 319 321 322 321
306 306 306 305 302 307 305 304 306 305 305 304 304 305 304 306 309 309 308 307 308 309 308 309 311 310 309 309 310 309 308 308 308 306 307 306 306 309 312 315 317 316 314
305 306 306 306 305 302 305 304 303 304 303 304 304 304 303 303 304 307 308 308 307 307 307 308 308 307 308 308 308 308 307 307 307 306 305 305 306 305 306 308 310 311 312
303 303 304 306 306 305 302 304 303 302 302 302 302 303 303 303 302 301 305 308 306 306 306 306 305 305 304 305 307 306 306 306 306 307 304 303 303 306 306 306 306 306 307
302 302 303 305 306 306 305 301 302 302 301 301 301 301 301 303 303 302 301 300 306 305 304 304 303 301 303 304 305 306 305 305 305 304 303 303 302 304 306 306 306 306 307
301 302 302 304 306 306 306 304 301 301 301 300 300 300 301 301 301 302 302 302 303 304 304 304 303 302 301 301 303 304 305 304 304 304 303 302 302 301 303 304 305 305 304
301 301 302 302 304 306 306 305 304 301 300 300 299 299 300 300 300 300 301 302 303 305 305 304 303 303 302 300 300 301 302 303 303 303 303 301 300 299 301 302 301 298 295
301 301 301 301 302 303 304 305 304 304 301 299 299 299 298 298 298 298 298 298 299 300 300 300 300 300 301 300 299 299 297 298 299 300 301 301 297 297 300 300 299 295 294
300 301 301 301 301 301 302 302 303 303 302 300 299 298 298 298 298 298 298 298 297 297 297 297 297 298 298 299 299 300 298 296 296 299 301 298 297 295 295 294 294 293 293
299 299 299 299 299 300 301 301 301 301 301 301 300 299 299 298 298 298 298 298 298 297 297 297 297 297 297 298 298 298 299 297 295 295 297 297 295 294 293 293 293 292 293
299 299 299 299 299 299 298 298 299 299 300 300 300 300 300 300 299 299 299 299 298 298 298 297 297 297 297 296 297 297 297 296 294 294 295 295 294 293 293 292 292 292 293
298 298 297 298 298 299 299 299 298 298 298 298 298 298 299 299 299 299 299 299 299 299 298 298 297 297 297 297 296 296 296 296 294 294 294 293 293 292 292 292 292 292 292
298 298 297 297 297 297 298 299 299 299 299 298 298 298 298 298 298 298 298 298 298 298 298 298 298 297 297 297 296 296 295 295 294 293 293 293 292 291 291 292 292 292 292

GFSMA_850_thetae_195.txt.gz
Theta_e
307 305 305 306 308 309 309 310 310 310 311 312 312 313 313 313 312 311 310 312 313 314 314 314 314 314 314 313 312 310 314 318 324 328 329 330 332 329 326 324 327 328 326
305 305 307 309 309 309 309 309 310 311 312 312 312 313 313 313 313 313 313 313 313 312 312 313 314 314 317 317 315 314 310 309 309 313 324 324 328 330 331 330 325 326 328
304 306 309 309 308 309 309 311 312 312 311 310 310 310 311 310 311 312 311 311 311 311 312 313 314 316 314 314 315 317 317 316 315 313 310 309 313 320 326 329 331 330 326
304 308 309 309 308 309 310 311 312 310 310 311 311 309 310 312 312 312 312 311 311 312 311 312 314 314 316 316 316 318 317 316 317 317 316 315 313 311 309 311 323 328 331
304 308 310 309 308 309 310 311 312 312 311 311 310 309 312 312 311 311 311 312 313 313 312 311 312 314 315 316 316 317 316 315 312 311 311 312 311 311 311 311 310 311 322
303 307 310 310 308 309 310 312 312 312 311 311 309 311 311 311 312 311 312 313 313 314 314 313 312 313 314 314 314 313 312 312 312 311 316 317 319 318 316 314 312 312 310
303 305 310 310 308 309 309 311 310 310 310 310 310 314 313 313 314 312 313 313 313 314 314 313 314 314 314 312 312 313 313 313 312 313 318 318 318 320 320 324 324 320 315
304 303 308 310 309 308 309 309 310 311 310 311 310 310 312 314 312 312 312 312 313 314 314 314 314 314 313 313 313 313 313 313 313 318 318 318 318 320 318 317 318 319 319
306 303 305 309 310 310 310 309 311 310 310 310 311 310 310 310 309 312 312 312 311 314 314 314 313 313 315 313 312 312 311 310 310 313 316 316 317 317 316 317 318 318 317
307 305 303 308 309 309 308 311 311 311 310 310 310 310 309 309 309 309 309 308 310 314 314 313 314 313 313 312 311 311 310 310 309 310 311 313 315 316 320 319 318 319 315
308 306 304 305 309 308 307 308 309 312 311 310 308 309 308 308 308 308 308 308 311 312 314 312 313 312 313 313 312 311 310 310 309 308 308 311 315 316 320 318 318 316 314
308 307 305 305 304 307 307 305 307 308 310 310 308 308 308 308 308 308 308 308 308 310 313 312 312 312 311 311 310 310 310 309 309 307 306 307 311 316 319 319 319 320 319
307 307 305 305 305 304 306 306 305 306 307 308 309 306 306 308 308 308 307 308 308 308 311 312 312 311 310 310 309 309 309 308 308 307 306 305 307 312 316 318 317 321 323
307 307 306 306 306 305 303 306 304 305 306 306 305 306 306 305 308 307 307 307 307 307 308 309 312 310 309 308 308 309 308 308 306 307 307 307 305 307 310 316 316 319 320
303 305 306 306 306 306 305 303 305 303 304 304 304 305 305 305 303 307 307 307 306 307 307 308 308 310 309 307 308 307 307 307 306 306 307 304 306 305 306 309 312 314 315
302 302 303 303 304 306 306 305 303 304 302 303 303 304 304 303 304 303 304 307 306 306 306 306 306 305 304 302 304 307 306 306 306 305 305 303 301 305 305 306 306 308 310
302 302 302 302 303 305 306 306 305 302 303 302 302 302 302 302 302 303 303 302 305 305 305 305 304 302 301 299 300 303 305 305 306 304 303 302 301 302 306 306 306 306 306
301 301 301 302 302 304 306 306 306 304 302 302 302 301 301 301 301 302 302 302 302 302 301 302 302 302 302 301 300 302 303 304 305 303 303 302 301 299 299 306 306 306 306
301 301 301 301 302 303 305 306 306 305 305 302 301 301 300 300 300 301 301 301 302 302 303 304 304 303 302 301 300 299 301 302 304 303 302 301 300 299 297 301 305 305 304
301 301 301 301 301 301 302 304 305 305 305 304 302 300 300 300 300 300 300 300 301 302 303 303 303 302 301 301 300 299 298 300 301 300 300 300 299 297 297 298 299 298 296
300 300 300 301 301 301 301 302 303 303 304 304 303 301 300 299 299 298 299 298 299 300 301 301 301 299 298 298 299 300 298 298 297 296 297 298 298 296 296 296 295 295 294
299 299 299 299 299 299 300 300 301 301 302 302 302 302 301 299 298 298 298 298 298 299 298 298 297 297 297 297 297 298 298 298 298 296 296 299 298 297 295 295 293 293 293
298 298 298 299 299 299 299 299 298 299 299 300 300 300 300 300 299 299 298 298 299 299 299 298 298 297 297 297 297 297 298 298 297 297 295 295 296 295 294 294 293 292 293
298 298 298 297 297 297 298 299 299 299 298 298 298 298 298 299 299 299 299 299 299 299 299 299 298 298 297 297 297 297 297 297 297 296 295 294 295 294 293 293 292 292 292
296 297 298 298 298 297 297 297 298 299 299 299 299 299 298 298 298 298 298 298 298 298 299 298 298 298 298 298 297 297 297 296 296 296 295 294 294 294 293 292 292 292 292
294 296 297 298 299 299 298 297 297 297 297 298 299 299 299 298 297 297 297 298 298 298 298 298 298 298 298 297 297 297 297 297 298 296 295 294 294 293 292 293 292 292 292